Location: Centre (historical)
(37.2198°N, 96.2100°W)
Time: 01:11:15
(UTC+00:00)

Daily predictions for brighter satellites

Satellite Brightness Start Highest point End
(mag) Time Altitude Azimuth Time Altitude Azimuth Time Altitude Azimuth
Cosmos 1850 Rocket 4.5 02:02:20 10° N 02:07:30 48° ENE 02:12:38 10° SE
GPS 2-04 Rocket1 3.1 02:06:27 10° W 02:09:39 39° SSW 02:12:54 10° SE
STARLINK-1079 4.1 02:06:04 10° NW 02:10:07 54° SW 02:14:09 10° SSE
DMSP B5D2-2 4.3 02:05:42 10° NNE 02:10:52 54° E 02:15:59 10° S
ASTEX 1 3.5 02:06:08 10° S 02:11:02 83° W 02:16:00 10° N
Cosmos 1331 Rocket 4.3 02:07:27 10° S 02:12:18 44° ESE 02:17:13 10° NNE
Cosmos 2279 Rocket 4.3 02:08:34 10° N 02:14:36 49° E 02:20:33 10° SSE
STARLINK-1116 4.3 02:11:04 10° WNW 02:15:05 49° SW 02:19:03 10° SSE
CZ-2C R/B 3.9 02:10:23 10° S 02:15:53 60° W 02:21:37 10° NNW
SL-8 R/B 4.5 02:18:51 10° NW 02:23:28 46° NNE 02:28:06 10° E
MONITOR-E 3.9 02:21:38 10° S 02:24:09 71° W 02:26:41 10° NNW
USA 186 2.7 02:21:37 10° S 02:24:10 40° W 02:26:55 10° NNW
STARLINK-1102 4.4 02:23:22 10° NW 02:27:19 42° NE 02:31:12 10° ESE
STARLINK-29 3.0 02:26:50 10° SW 02:30:03 81° NW 02:33:17 10° NE
SPOT 3 Rocket 3.6 02:26:39 10° SSE 02:31:44 64° ENE 02:36:51 10° N
STARLINK-1111 4.3 02:28:20 10° NW 02:32:20 46° NE 02:36:00 12° ESE
NOSS 2-2 (D) 4.2 02:30:18 10° SW 02:33:45 47° NW 02:37:24 10° NNE
SL-4 R/B 3.0 02:29:21 10° WSW 02:33:52 61° NW 02:38:39 10° NE
COSMOS 2455 4.4 02:32:32 11° SE 02:34:57 14° ESE 02:37:50 10° ENE
deb Kosmos-1763 4.3 02:32:09 10° N 02:35:39 52° ENE 02:38:41 13° SE
ARGOS 4.1 02:31:23 10° S 02:36:33 49° W 02:41:47 10° NNW
STARLINK-1073 4.1 02:33:16 10° NW 02:37:19 51° NE 02:40:47 13° ESE
H-2A R/B 3.5 02:33:26 10° SSW 02:38:05 36° W 02:42:53 10° NNW
ASTRO E2 4.0 02:35:14 10° WSW 02:38:30 25° SSW 02:41:02 14° SE
CZ-2C R/B 2.8 02:33:58 10° NNE 02:39:37 86° WNW 02:45:11 10° SSW
BREEZE-M DEB (TANK) 2.9 02:39:00 10° SSW 02:41:09 33° SE 02:45:12 10° ENE
ISS -1.2 02:40:20 10° W 02:42:12 14° SW 02:44:04 10° SSW
STARLINK-1121 4.0 02:38:13 10° NW 02:42:18 56° NE 02:45:34 15° ESE
Cosmos 1437 Rocket 3.1 02:38:44 10° SSW 02:42:29 67° W 02:46:19 10° N
STARLINK-1320 3.7 02:41:51 10° SSW 02:44:34 28° SE 02:47:18 10° ENE
Cosmos 1943 Rocket 2.1 02:39:23 10° S 02:44:50 63° ESE 02:50:22 10° NNE
STARLINK-1322 3.7 02:42:11 10° SSW 02:44:55 28° SE 02:47:40 10° ENE
STARLINK-1324 3.7 02:42:30 10° SSW 02:45:14 29° SE 02:47:59 10° ENE
STARLINK-1294 3.7 02:42:50 10° SSW 02:45:33 29° SE 02:48:17 10° ENE
STARLINK-1261 3.7 02:43:10 10° SSW 02:45:55 29° SE 02:48:41 10° ENE
STARLINK-1325 3.6 02:43:30 10° SSW 02:46:16 29° SE 02:49:02 10° ENE
STARLINK-1333 3.6 02:43:52 10° SSW 02:46:38 30° SE 02:49:25 10° ENE
STARLINK-1334 3.6 02:44:09 10° SSW 02:46:55 30° SE 02:49:42 10° ENE
STARLINK-1373 4.5 02:43:51 10° S 02:47:11 26° SE 02:50:33 10° ENE
STARLINK-1326 3.6 02:44:28 10° SSW 02:47:14 30° SE 02:50:01 10° ENE
STARLINK-1106 3.8 02:43:10 10° NW 02:47:17 62° NE 02:50:20 17° ESE
STARLINK-1323 3.6 02:44:50 10° SSW 02:47:37 30° SE 02:50:25 10° ENE
STARLINK-1349 3.6 02:45:08 10° SSW 02:47:55 31° SE 02:50:43 10° ENE
STARLINK-1336 3.6 02:45:27 10° SSW 02:48:14 31° SE 02:51:03 10° ENE
STARLINK-1331 3.6 02:45:49 10° SSW 02:48:37 31° SE 02:51:26 10° ENE
STARLINK-1344 3.5 02:46:07 10° SSW 02:48:55 32° SE 02:51:44 10° ENE
STARLINK-1343 3.5 02:46:29 10° SSW 02:49:17 32° SE 02:52:07 10° ENE
STARLINK-1346 3.5 02:46:46 10° SSW 02:49:35 32° SE 02:52:25 10° ENE
STARLINK-1328 3.5 02:47:11 10° SSW 02:50:01 32° SE 02:52:52 10° ENE
STARLINK-1354 3.5 02:47:28 10° SSW 02:50:18 33° SE 02:53:08 10° ENE
STARLINK-1347 3.5 02:47:45 10° SSW 02:50:35 33° SE 02:53:26 10° ENE
STARLINK-1357 3.5 02:48:10 10° SSW 02:51:01 33° SE 02:53:52 10° ENE
STARLINK-1335 3.5 02:48:27 10° SSW 02:51:18 34° SE 02:54:09 10° ENE
STARLINK-1327 3.4 02:48:48 10° SSW 02:51:39 34° SE 02:54:31 10° ENE
STARLINK-1390 4.4 02:48:21 10° S 02:51:50 28° SE 02:55:19 10° ENE
STARLINK-1340 3.4 02:49:05 10° SSW 02:51:57 34° SE 02:54:48 10° ENE
STARLINK-1112 3.7 02:48:09 10° NW 02:52:17 69° NE 02:55:08 19° ESE
STARLINK-1356 3.4 02:49:28 10° SSW 02:52:19 35° SE 02:55:12 10° ENE
STARLINK-1345 3.4 02:49:46 10° SSW 02:52:38 35° SE 02:55:31 10° ENE
STARLINK-1355 3.4 02:50:07 10° SSW 02:52:59 35° SE 02:55:53 10° ENE
STARLINK-1321 3.4 02:50:28 10° SSW 02:53:20 36° SE 02:56:14 10° ENE
STARLINK-1358 3.4 02:50:50 10° SSW 02:53:43 36° SE 02:56:37 10° ENE
NOSS 3-4 (A) 3.8 02:48:33 10° S 02:53:54 37° ESE 02:59:26 10° NE
NOSS 3-4 (C) 3.8 02:48:40 10° S 02:54:00 37° ESE 02:59:32 10° NE
STARLINK-1332 3.3 02:51:07 10° SSW 02:54:01 36° SE 02:56:54 10° ENE
STARLINK-1348 3.3 02:51:27 10° SSW 02:54:21 37° SE 02:57:15 10° ENE
STARLINK-1330 3.3 02:51:46 10° SSW 02:54:40 37° SE 02:57:35 10° ENE
STARLINK-1363 3.3 02:52:07 10° SSW 02:55:01 37° SE 02:57:55 10° ENE
STARLINK-1337 3.3 02:52:29 10° SSW 02:55:22 38° SE 02:58:18 10° ENE
STARLINK-1342 3.3 02:52:46 10° SSW 02:55:41 38° SE 02:58:37 10° ENE
ATLAS CENTAUR R/B 2.3 02:51:50 10° S 02:55:46 30° ESE 02:59:31 10° NE
STARLINK-1364 3.3 02:53:06 10° SSW 02:56:02 38° SE 02:58:57 10° ENE
STARLINK-1376 3.3 02:53:26 10° SSW 02:56:21 39° SE 02:59:17 10° ENE
Okean 1 Rocket 3.3 02:52:22 10° N 02:56:42 51° E 02:59:40 19° SSE
STARLINK-1360 3.2 02:53:47 10° SSW 02:56:42 39° SE 02:59:38 10° ENE
STARLINK-1361 3.2 02:54:07 10° SSW 02:57:03 39° SE 02:59:59 10° ENE
Okean 2 4.4 02:55:04 19° SE 02:57:04 28° E 03:00:40 10° NNE
STARLINK-1128 3.6 02:53:06 10° NW 02:57:15 76° NE 02:59:54 21° SE
STARLINK-1367 3.2 02:54:24 10° SSW 02:57:19 40° SE 03:00:16 10° ENE
Lacrosse 5 3.8 02:53:39 10° WNW 02:57:22 21° WSW 03:01:06 10° SSW
STARLINK-1366 3.2 02:54:45 10° SSW 02:57:41 40° SE 03:00:39 10° ENE
STARLINK-1365 4.2 02:54:08 10° SSW 02:57:47 33° SE 03:01:28 10° ENE
STARLINK-1113 3.6 02:58:05 10° NW 03:02:15 84° NE 03:04:42 24° SE
Cosmos 1656 Rocket 4.5 03:00:25 17° SSE 03:03:45 30° ESE 03:08:32 10° NE
OAO 1 4.5 02:58:43 10° W 03:04:12 72° S 03:08:39 16° E
Cosmos 1900 4.5 03:00:45 10° NNW 03:05:48 67° ENE 03:09:01 22° SE
Cosmos 1766 4.2 03:02:45 10° NNE 03:06:22 32° ENE 03:07:53 24° ESE
STARLINK-1119 3.6 03:03:03 10° NW 03:07:13 87° SW 03:09:28 26° SE
STARLINK-1338 3.9 03:03:55 10° SSW 03:07:39 40° SE 03:11:23 10° ENE
STARLINK-1114 3.6 03:08:03 10° NW 03:12:12 79° SW 03:14:16 28° SE
STARLINK-1371 3.6 03:11:57 10° SSW 03:15:44 48° SE 03:19:33 10° ENE
STARLINK-1130 (DARKSAT) 3.7 03:13:01 10° NW 03:17:08 71° SW 03:19:02 31° SSE
MetOp-B 4.1 03:13:45 21° SSE 03:17:19 71° ENE 03:22:40 10° N
Cosmos 1378 3.1 03:16:05 16° S 03:18:58 82° W 03:22:41 10° N
STARLINK-1341 3.5 03:16:16 10° SSW 03:20:07 54° SE 03:23:59 10° NE
Cosmos 2082 Rocket 4.0 03:15:51 10° NW 03:20:30 26° WSW 03:25:08 10° SSW
Cosmos 2369 Rocket 2.2 03:15:36 10° SSW 03:21:17 89° WNW 03:26:57 10° NNE
ATLAS 2AS CENTAUR R/B 3.0 03:13:33 10° SSW 03:21:21 70° ESE 03:29:18 10° NE
Resurs 01 Rocket 2.1 03:18:11 16° S 03:21:37 58° W 03:26:01 10° NNW
Milstar 3 Cent rocket 3.9 03:15:06 10° SW 03:22:02 43° SSE 03:35:50 10° E
STARLINK-1084 3.8 03:18:01 10° NW 03:22:07 64° SW 03:23:49 33° SSE
USA 245 2.9 03:23:08 40° ENE 03:23:08 40° ENE 03:25:18 10° N
Abrixas rocket 3.3 03:20:47 10° WNW 03:23:19 26° SW 03:23:41 25° SSW
STARLINK-1374 3.4 03:20:51 10° SSW 03:24:45 60° SE 03:28:41 10° NE
NOSS 3-2 (A) 4.2 03:19:12 10° NNW 03:26:59 77° ENE 03:32:28 25° SE
STARLINK-1098 3.9 03:23:00 10° NW 03:27:04 57° SW 03:28:35 34° SSE
STARLINK-1339 3.4 03:24:49 10° SW 03:28:44 66° SE 03:32:39 10° NE
Cosmos 2026 Rocket 4.2 03:25:23 23° SSE 03:29:08 53° E 03:35:18 10° NNE
STARLINK-1123 4.0 03:28:01 10° WNW 03:32:02 51° SW 03:33:23 35° S
STARLINK-1377 3.3 03:29:29 10° SW 03:33:27 73° SE 03:37:26 10° NE
SAR-Lupe-2 3.5 03:30:20 10° NNE 03:33:56 88° W 03:35:30 32° SSW
SPOT 5 3.8 03:34:48 28° ESE 03:36:46 38° ENE 03:41:41 10° N
STARLINK-1097 4.2 03:33:03 10° WNW 03:37:00 45° SW 03:38:10 35° S
STARLINK-1353 3.3 03:33:49 10° SW 03:37:48 81° SE 03:41:48 10° NE
Cosmos 1805 3.2 03:34:09 10° N 03:38:05 81° W 03:39:28 39° S
Terra 3.0 03:38:15 24° E 03:39:27 27° ENE 03:43:24 10° NNE
Spot 2 Rocket 3.4 03:38:20 30° S 03:40:52 86° WSW 03:45:56 10° NNW
STARLINK-1099 4.4 03:38:03 10° WNW 03:41:56 41° SW 03:42:56 34° SSW
USA 238 DEB 3.8 03:34:48 10° NNW 03:42:08 90° SW 03:46:14 30° SSE
STARLINK-1375 3.4 03:38:11 10° SW 03:42:11 88° SE 03:46:12 10° NE
USA 238 3.8 03:34:55 10° NNW 03:42:14 90° ENE 03:46:20 30° SSE
Cosmos 1470 4.0 03:41:22 10° NNE 03:44:32 26° ENE 03:44:32 26° ENE
STARLINK-1350 3.5 03:42:32 10° SW 03:46:32 84° NW 03:50:33 10° NE
Cosmos 1733 3.0 03:43:20 10° N 03:47:08 84° E 03:47:46 60° SSE
SL-27 R/B 2.2 03:44:01 10° NNW 03:47:33 81° ENE 03:47:48 74° SE
STARLINK-1352 3.6 03:46:38 10° SW 03:50:37 77° NW 03:54:37 10° NE
Cosmos 1842 3.2 03:49:38 44° SSW 03:50:48 79° W 03:54:41 10° N
STARLINK-1217 4.5 03:50:54 10° NNW 03:53:46 28° NE 03:54:03 28° NE
STARLINK-1229 4.4 03:52:04 10° NNW 03:54:56 29° NE 03:55:09 28° NE
STARLINK-1368 3.7 03:51:26 10° SW 03:55:26 70° NW 03:59:26 10° NE
VEP-3 4.0 03:51:10 10° SW 04:06:30 - E 03:53:40 19° SSW
STARLINK-1270 4.4 03:52:48 10° NNW 03:55:38 28° NE 03:55:46 28° NE
CZ-4B DEB 4.3 03:56:49 84° NNE 03:56:49 84° NNE 04:00:04 10° N
Cosmos 1025 Rocket 3.6 03:58:04 40° E 03:58:04 40° E 04:01:56 10° NNE
STARLINK-1189 4.3 03:55:39 10° NNW 03:58:35 31° NE 03:58:40 31° NE
STARLINK-1188 4.3 03:56:54 10° NNW 03:59:51 32° NE 03:59:52 32° NE
STARLINK-1369 3.9 03:55:55 10° WSW 03:59:53 63° NW 04:03:53 10° NE
Cosmos 1975 Rocket 3.7 03:59:16 25° SSW 04:01:36 53° W 04:05:54 10° N
STARLINK-1191 4.3 03:59:32 10° NNW 04:02:21 33° NNE 04:02:21 33° NNE
STARLINK-1221 4.3 04:00:12 10° NNW 04:02:54 32° NNE 04:02:54 32° NNE
Cosmos 1271 Rocket 2.7 04:03:20 69° E 04:03:20 69° E 04:07:11 10° NNE
STARLINK-1372 4.2 03:59:56 10° WSW 04:04:09 59° NW 04:08:14 10° NE
RESURS DK-1 3.9 04:05:59 23° ENE 04:05:59 23° ENE 04:08:00 10° NE
STARLINK-1222 4.2 04:02:02 10° NNW 04:04:47 34° NNE 04:04:47 34° NNE
STARLINK-1214 4.2 04:02:49 10° NNW 04:05:31 34° NNE 04:05:31 34° NNE
SL-8 R/B 4.4 04:01:31 10° WNW 04:05:57 38° SW 04:06:28 37° SSW
Cosmos 1174 3.7 04:06:19 59° WNW 04:06:19 59° WNW 04:09:46 10° NNE
Cosmos 1242 Rocket 2.9 04:08:21 54° WSW 04:08:47 59° W 04:12:25 10° N
STARLINK-1378 4.3 04:04:53 10° WSW 04:08:49 53° NW 04:12:45 10° NE
Cosmos 1655 Rocket 4.3 04:08:49 41° SE 04:10:11 47° E 04:16:09 10° NNE
Cosmos 1953 4.0 04:07:34 10° NNE 04:10:06 22° ENE 04:10:06 22° ENE
STARLINK-1379 4.5 04:09:27 10° WSW 04:13:20 48° NW 04:17:15 10° NE
ATLAS 3B CENTAUR R/B 3.6 03:59:15 10° W 04:14:46 48° SSW 04:17:40 37° SSE
SPOT 1/Viking Rocket 3.9 04:13:01 37° SSW 04:14:47 56° W 04:19:51 10° NNW
Cosmos 1707 3.1 04:15:53 55° NE 04:15:53 55° NE 04:19:09 10° NNE
CENTAUR R/B 3.2 04:07:35 10° NNW 04:15:57 86° ENE 04:19:52 39° SE
COSMOS 2455 2.9 04:15:31 18° SSW 04:20:05 78° WNW 04:26:08 10° NNE
STARLINK-1209 4.0 04:18:14 10° NW 04:20:56 51° NNW 04:20:56 51° NNW
Cosmos 1486 Rocket 4.2 04:16:48 10° NNW 04:22:02 65° WSW 04:23:10 50° SSW
ATLAS 3B R/B 3.3 04:17:48 10° NNW 04:24:23 47° NE 04:27:03 33° ESE
Cosmos 1354 Rocket 4.1 04:19:09 10° NNW 04:24:26 63° ENE 04:25:09 57° ESE
STARLINK-1187 4.5 04:25:18 10° NW 04:27:26 37° NW 04:27:26 37° NW
Cosmos 1758 3.5 04:26:04 10° N 04:29:47 72° N 04:29:47 72° N
Cosmos 1455 Rocket 3.8 04:30:33 10° NNW 04:34:38 42° W 04:35:05 40° WSW
ATLAS CENTAUR R/B 3.6 04:30:57 10° WSW 04:34:38 25° NW 04:38:10 10° N
Meteor 2-19 Rocket 4.4 04:38:54 57° SE 04:39:42 63° E 04:45:44 10° NNE
CARTOSAT-1 4.5 04:39:40 39° WSW 04:39:54 39° W 04:43:58 10° NNW
ERS-1 Rocket 3.7 04:39:06 39° SW 04:40:05 43° W 04:44:53 10° NNW
NOSS 3-2 (C) 4.3 04:32:33 10° NW 04:40:18 62° WSW 04:43:15 42° S
CZ-4C R/B 4.3 04:47:00 11° ENE 04:47:00 11° ENE 04:47:26 10° ENE
Cosmos 1833 4.2 04:40:31 10° NNW 04:46:07 67° WSW 04:46:47 61° SSW
Cosmos 1417 Rocket 4.5 04:41:10 10° N 04:47:33 81° W 04:48:56 57° S
Cosmos 2098 Rocket 4.5 04:54:00 52° SE 04:55:17 58° E 05:02:33 10° NNE
Cosmos 968 Rocket 4.4 04:52:58 10° NW 04:57:39 36° W 04:58:00 36° WSW
Meteor 1-16 Rocket 4.0 04:58:14 10° N 05:03:34 78° ENE 05:03:34 78° ENE
Meteor 2-15 4.4 04:59:04 10° N 05:05:10 68° E 05:05:36 66° ESE
Exosat Rocket 4.0 04:57:42 10° NNW 05:05:51 83° ENE 05:06:47 67° SE
Cosmos 1867 4.1 05:02:25 10° NW 05:07:28 48° WSW 05:07:28 48° WSW
Cosmos 1726 3.7 05:04:55 10° NNW 05:07:12 35° NNW 05:07:12 35° NNW
Timation 2 Rocket 4.2 05:02:52 10° NNW 05:08:55 53° ENE 05:09:37 50° E
Cosmos 1674 4.4 05:12:38 31° N 05:12:38 31° N 05:14:43 10° N
BREEZE-M DEB (TANK) 3.4 05:05:11 10° WSW 05:13:50 53° NW 05:17:02 10° NE
Cosmos 2227 Rocket 4.0 05:09:56 10° N 05:14:01 20° NE 05:15:33 18° ENE
Terra 3.2 05:17:08 28° W 05:17:08 28° W 05:21:09 10° NW
S3M 4.3 05:14:00 10° NNW 05:20:02 55° W 05:20:58 50° WSW
Cosmos 1777 Rocket 4.1 05:15:57 10° NNW 05:20:48 69° NNE 05:20:48 69° NNE
Cosmos 2315 Rocket 3.8 05:19:24 10° N 05:25:39 79° E 05:25:55 77° ESE
Meteor 2-15 Rocket 4.3 05:21:33 10° N 05:27:42 83° E 05:27:52 81° ESE
Thor Agena Rocket 4.0 05:26:41 10° N 05:31:50 55° WNW 05:32:02 55° W
BREEZE-M DEB (TANK) 3.7 05:24:21 10° NW 05:31:48 63° NW 05:31:48 63° NW
Meteor 2-5 Rocket 3.7 05:36:00 80° N 05:36:00 80° N 05:41:20 10° N
Cosmos 1626 4.4 05:38:59 22° NNE 05:38:59 22° NNE 05:40:25 10° NNE
Cosmos 2058 Rocket 4.3 05:35:57 10° N 05:38:59 37° NNE 05:38:59 37° NNE
ALOS 2 3.7 05:44:08 40° NNE 05:44:08 40° NNE 05:47:12 10° N
SeaSat 1 2.8 05:42:21 10° NNE 05:46:39 62° NNW 05:46:39 62° NNW
Cosmos 921 Rocket 4.5 05:56:35 34° NW 05:56:35 34° NW 05:59:41 10° N
Cosmos 1980 Rocket 4.0 05:57:04 19° E 05:57:04 19° E 05:59:42 10° NE
Lacrosse 4 Rocket 3.7 05:53:19 10° N 05:56:09 18° NE 05:56:09 18° NE
FALCON 9 R/B 4.3 06:03:08 24° E 06:03:08 24° E 06:07:44 10° E
Meteor 2-21 4.4 06:01:16 73° W 06:01:20 73° W 06:07:33 10° N
Cosmos 2369 4.4 06:07:49 43° ENE 06:07:49 43° ENE 06:12:04 10° NNE
Helios 1A 4.5 06:14:00 35° N 06:14:00 35° N 06:16:34 10° N
Cosmos 1656 3.9 06:13:31 68° NW 06:13:31 68° NW 06:18:44 10° NNE
ATLAS 3B R/B 3.7 06:08:49 10° NW 06:14:17 33° WSW 06:14:17 33° WSW
Cosmos 1745 Rocket 4.0 06:15:24 67° ENE 06:15:24 67° ENE 06:21:14 10° NNE
Meteor 1-24 Rocket 4.2 06:15:46 51° WNW 06:15:46 51° WNW 06:20:45 10° N
Cosmos 1898 Rocket 4.4 06:11:25 10° N 06:16:14 42° ENE 06:16:14 42° ENE
Cosmos 2297 Rocket 2.3 06:15:00 10° NNW 06:20:07 71° N 06:20:07 71° N
Cosmos 2219 3.4 06:19:23 10° NNW 06:24:10 63° NW 06:24:10 63° NW
SJ 16-02 2.6 06:24:30 10° N 06:27:25 39° N 06:27:25 39° N
CZ-4C R/B 2.6 06:32:08 51° NW 06:32:08 51° NW 06:37:28 10° NNE
Cosmos 2082 4.2 06:29:53 10° NNW 06:35:23 51° ENE 06:35:31 50° ENE
Cosmos 1386 Rocket 4.4 06:37:45 84° NW 06:37:45 84° NW 06:43:52 10° N
Cosmos 841 Rocket 4.2 06:39:02 47° ENE 06:39:02 47° ENE 06:43:00 10° NNE
Cosmos 1697 Rocket 2.8 06:41:27 71° NNW 06:41:27 71° NNW 06:46:40 10° NNE
Cosmos 2278 4.0 06:43:42 61° ENE 06:43:42 61° ENE 06:48:35 10° NNE
Cosmos 1763 Rocket 4.0 06:45:58 53° NNW 06:45:58 53° NNW 06:50:10 10° N
Meteor 2-1 Rocket 4.3 06:40:00 10° N 06:45:07 73° NNE 06:45:07 73° NNE
Cosmos 1570 Rocket 4.4 06:46:31 60° NE 06:46:31 60° NE 06:50:54 10° NNE
Resurs 1-4 Rocket 4.2 06:45:04 10° ENE 06:48:08 15° E 06:48:08 15° E
Cosmos 2227 Rocket 2.7 06:52:53 10° NNW 06:57:21 48° WNW 06:57:21 48° WNW
Cosmos-2242 4.4 06:58:47 10° N 07:01:42 35° NE 07:01:42 35° NE
Cosmos 1709 Rocket 3.8 07:03:41 89° SSW 07:03:43 90° W 07:09:54 10° N
Gblst 52 Del rocket 4.5 07:04:38 68° ESE 07:04:38 68° ESE 07:10:54 10° NE
Cosmos 2208 Rocket 4.2 07:05:37 69° N 07:05:37 69° N 07:10:20 10° NNE
SL-16 R/B 3.6 07:10:10 26° E 07:10:10 26° E 07:14:39 10° NE
USA 81 4.2 07:12:55 69° NNW 07:12:55 69° NNW 07:17:38 10° N
SL-16 R/B 4.0 07:10:44 19° ESE 07:13:59 30° ENE 07:19:12 10° N
Cosmos 489 Rocket 4.4 07:16:05 72° ESE 07:16:18 72° ESE 07:22:31 10° NNE
Helios 1B rocket 3.9 07:13:02 10° N 07:15:40 33° NNW 07:15:40 33° NNW
Cosmos 540 Rocket 3.8 07:20:21 57° NW 07:20:21 57° NW 07:24:52 10° N
CZ-2D R/B 3.3 07:15:42 10° NE 07:20:14 30° E 07:20:19 30° E
Meteor 2-10 Rocket 3.9 07:15:41 10° NNW 07:19:45 53° NW 07:19:45 53° NW
Cosmos 1455 4.2 07:18:02 10° NNW 07:19:41 24° NNW 07:19:41 24° NNW
Cosmos 2285 Rocket 3.8 07:24:36 10° NNW 07:30:57 76° WSW 07:31:12 75° SW
Cosmos 2360 Rocket 4.2 07:31:03 15° ESE 07:32:04 16° E 07:35:19 10° ENE
Lacrosse 4 Rocket 3.6 07:31:10 10° NW 07:32:26 18° NW 07:32:26 18° NW
Cosmos 1980 Rocket 2.7 07:38:49 46° WNW 07:39:09 47° WNW 07:44:37 10° N
USA 215 3.2 07:37:06 28° SE 07:40:53 84° NE 07:47:27 10° NW
STARLINK-1299 4.4 07:48:10 51° NNE 07:48:10 51° NNE 07:51:35 10° NE
Cosmos 2074 Rocket 3.9 07:50:08 64° S 07:51:12 83° E 07:57:31 10° N
STARLINK-1273 4.4 07:53:02 50° NNE 07:53:02 50° NNE 07:56:16 10° NE
Meteor 1-11 4.1 07:53:04 68° W 07:53:18 69° W 07:58:53 10° N
ADEOS II 3.7 07:52:29 10° NE 07:56:46 25° E 07:58:25 21° ESE
STARLINK-1288 4.3 07:57:48 52° N 07:57:48 52° N 08:01:13 10° NE
Cosmos 2263 Rocket 2.6 07:54:35 10° NNW 08:00:07 59° ENE 08:02:25 34° SE
Cosmos 372 Rocket 4.0 07:55:44 10° NNW 08:00:26 63° WNW 08:00:26 63° WNW
STARLINK-1308 4.3 08:02:38 52° N 08:02:38 52° N 08:06:14 10° NE
Timation 1 Rocket 4.2 08:01:33 10° NNW 08:07:32 77° WSW 08:08:33 61° S
NPP 3.6 08:02:39 10° NNE 08:08:04 76° ESE 08:08:53 63° SSE
Cosmos 1400 Rocket 3.9 08:04:16 10° NNW 08:07:07 39° NW 08:07:07 39° NW
BREEZE M DEB (TANK) 3.2 08:11:18 62° ENE 08:11:18 62° ENE 08:17:23 10° ESE
STARLINK-1304 4.3 08:12:11 47° NNW 08:12:11 47° NNW 08:16:07 10° NE
Cosmos 2150 Rocket 3.9 08:10:31 10° NNW 08:15:38 66° WSW 08:15:39 66° WSW
STARLINK-45 4.5 08:17:45 37° ENE 08:17:45 37° ENE 08:20:11 10° NE
Cosmos 2184 Rocket 4.0 08:15:33 53° SW 08:16:43 63° W 08:22:50 10° N
Cosmos 2322 Rocket 2.1 08:16:57 62° SSW 08:17:57 85° ESE 08:23:36 10° NNE
Cosmos 2327 Rocket 4.5 08:16:25 51° S 08:18:13 88° W 08:24:37 10° N
BREEZE-M DEB (TANK) 3.1 08:17:42 57° WSW 08:18:36 78° NNW 08:30:16 10° NE
In-Cosmos 22 Rocket 4.4 08:18:09 46° SSE 08:19:41 65° E 08:25:08 10° NNE
STARLINK-76 4.4 08:20:46 38° E 08:20:46 38° E 08:23:17 10° NE
NOSS 2-1 (C) 4.4 08:21:21 32° NNW 08:21:21 32° NNW 08:23:55 10° NNE
STARLINK-70 4.2 08:21:49 43° ENE 08:21:49 43° ENE 08:24:31 10° NE
STARLINK-23 4.3 08:22:21 40° E 08:22:21 40° E 08:24:56 10° NE
STARLINK-32 4.4 08:23:05 39° ENE 08:23:05 39° ENE 08:25:31 10° NE
Iridium 2 3.9 08:19:22 10° N 08:22:42 67° NNE 08:22:42 67° NNE
STARLINK-1048 4.4 08:24:51 41° ESE 08:24:51 41° ESE 08:28:20 10° ENE
STARLINK-40 4.1 08:25:28 45° ENE 08:25:28 45° ENE 08:28:11 10° NE
Cosmos 1610 Rocket 4.4 08:23:02 51° SSW 08:24:44 83° W 08:30:57 10° N
NOSS 2-1 (D) 4.4 08:26:07 29° NW 08:26:07 29° NW 08:28:46 10° NNE
STARLINK-44 4.0 08:26:59 48° ENE 08:26:59 48° ENE 08:29:47 10° NE
STARLINK-37 3.8 08:28:43 54° ENE 08:28:43 54° ENE 08:31:38 10° NE
Resurs 1-4 Rocket 2.3 08:23:04 10° N 08:28:17 58° WNW 08:29:13 50° WSW
Cosmos 1125 Rocket 3.3 08:23:15 10° NNW 08:28:28 84° WSW 08:29:46 52° S
STARLINK-1049 4.1 08:29:39 47° ESE 08:29:39 47° ESE 08:33:22 10° ENE
USA 229 DEB 4.0 08:22:01 10° NNW 08:29:26 81° ENE 08:37:08 10° SE
STARLINK-36 3.8 08:30:07 53° ENE 08:30:07 53° ENE 08:33:02 10° NE
USA 229 4.0 08:22:08 10° NNW 08:29:32 80° ENE 08:37:14 10° SE
NOSS 3-1 (C) 4.1 08:22:23 10° NNW 08:30:15 89° NE 08:39:07 10° SSE
STARLINK-63 3.6 08:33:07 60° ENE 08:33:07 60° ENE 08:36:10 10° NE
STARLINK-35 3.7 08:33:51 56° ENE 08:33:51 56° ENE 08:36:44 10° NE
STARLINK-1051 3.9 08:34:25 54° SE 08:34:25 54° SE 08:38:21 10° NE
STARLINK-51 3.5 08:36:10 65° ENE 08:36:10 65° ENE 08:39:18 10° NE
CZ-4C R/B 4.2 08:37:08 41° W 08:37:08 41° W 08:40:52 10° NNW
STARLINK-30 3.4 08:37:59 71° NE 08:37:59 71° NE 08:41:16 10° NE
STARLINK-72 3.5 08:38:29 65° NE 08:38:29 65° NE 08:41:33 10° NE
NOSS 3-1 (A) 4.4 08:30:47 10° NNW 08:38:35 70° NE 08:47:22 10° SE
GEOS 3 Rocket 4.4 08:34:28 10° SE 08:39:27 51° NE 08:44:33 10° NNW
STARLINK-59 3.3 08:41:41 70° NNE 08:41:41 70° NNE 08:44:54 10° NE
Cosmos 2221 2.5 08:38:57 10° NNW 08:43:16 62° W 08:43:34 60° WSW
STARLINK-56 3.2 08:44:14 78° N 08:44:14 78° N 08:47:45 10° NE
STARLINK-1028 3.5 08:43:58 65° SSE 08:44:14 68° SE 08:48:21 10° NE
Cosmos 1315 Rocket 2.9 08:40:26 10° NNW 08:44:05 58° WNW 08:44:05 58° WNW
Cosmos 2237 4.2 08:42:34 42° S 08:44:35 77° ESE 08:50:19 10° NNE
STARLINK-73 3.2 08:45:48 77° NNW 08:45:48 77° NNW 08:49:22 10° NE
Cosmos 962 Rocket 4.4 08:43:25 35° S 08:46:13 85° E 08:52:26 10° N
STARLINK-38 3.2 08:47:21 74° NW 08:47:23 74° NW 08:51:01 10° NE
STARLINK-65 3.2 08:48:56 71° NW 08:49:01 71° NW 08:52:39 10° NE
STARLINK-1021 3.5 08:48:47 66° S 08:49:13 76° SE 08:53:22 10° NE
STARLINK-68 3.3 08:49:50 63° NW 08:49:59 64° NW 08:53:34 10° NE
STARLINK-53 3.3 08:50:34 63° WNW 08:50:44 64° NW 08:54:20 10° NE
Cosmos 2154 Rocket 4.2 08:49:02 38° SW 08:51:07 53° W 08:57:12 10° N
IRIDIUM 104 4.2 08:49:34 43° SSW 08:51:16 76° W 08:56:30 10° N
Cosmos 1842 Rocket 4.1 08:47:37 10° NNW 08:51:46 39° W 08:51:47 39° W
Cosmos 2058 3.1 08:51:49 52° WSW 08:52:13 55° W 08:56:22 10° N
IRS-P3 4.1 08:47:16 10° NNE 08:52:36 77° ESE 08:54:59 34° S
STARLINK-1010 3.6 08:52:14 61° SW 08:52:56 86° SE 08:57:11 10° NE
Cosmos 773 Rocket 4.1 08:51:33 36° S 08:53:40 70° ESE 08:58:56 10° NNE
SL-16 R/B 3.0 08:52:02 31° WSW 08:53:53 39° WNW 08:59:11 10° N
STARLINK-1019 3.5 08:53:32 62° SW 08:54:10 84° SE 08:58:19 10° NE
Cosmos 1844 Rocket 4.3 08:49:21 10° N 08:54:25 34° ENE 08:59:25 10° SE
STARLINK-50 3.4 08:55:04 59° W 08:55:34 67° NW 08:59:20 10° NE
SL-16 R/B 3.0 08:55:50 35° SW 08:57:22 40° W 09:03:08 10° NNW
Meteor 2-2 Rocket 4.4 08:51:28 10° NNW 08:57:23 60° W 08:59:58 33° SSW
COSMOS 2428 4.3 08:54:57 13° SSE 08:59:06 28° ESE 09:03:50 10° NE
STARLINK-1012 3.5 08:58:20 56° SW 08:59:09 88° NW 09:03:19 10° NE
CZ-2D R/B 3.2 08:55:44 10° N 09:00:11 30° WNW 09:01:38 26° W
IRIDIUM 114 4.4 08:58:41 39° SSW 09:00:25 61° W 09:05:36 10° N
STARLINK-71 3.9 09:02:35 41° W 09:03:38 56° NW 09:07:36 10° NE
CBERS-1 4.3 09:01:15 10° N 09:06:14 53° WNW 09:08:08 34° SW
STARLINK-25 3.8 09:06:40 38° WNW 09:07:19 44° NW 09:10:39 10° NE
STARLINK-1026 3.6 09:07:52 43° WSW 09:09:06 72° NW 09:13:14 10° NE
Elektron 1 4.3 09:11:20 47° WSW 09:12:07 65° NW 09:16:50 10° NNE
ERS-2 3.6 09:08:49 10° SE 09:12:11 36° ENE 09:15:35 10° N
STARLINK-1013 3.8 09:12:40 38° WSW 09:14:06 65° NW 09:18:13 10° NE
Cosmos 2360 Rocket 2.3 09:12:49 31° SW 09:15:26 61° WNW 09:21:02 10° NNE
SL-4 R/B 2.2 09:12:13 10° NW 09:17:00 80° SW 09:21:32 10° SE
Cosmos 1892 3.9 09:16:50 25° W 09:17:06 25° WNW 09:20:18 10° NNW
Cosmos 1606 4.4 09:13:42 10° NNE 09:17:08 32° ENE 09:20:33 10° SE
SL-24 DEB 4.3 09:14:04 10° N 09:18:40 78° E 09:21:46 21° S
STARLINK-1009 3.9 09:17:27 33° WSW 09:19:05 59° NW 09:23:11 10° NE
Cosmos 2366 rocket 4.0 09:16:20 18° S 09:21:07 84° E 09:27:27 10° N
STARLINK-1015 4.0 09:22:13 29° WSW 09:24:04 53° NW 09:28:07 10° NE
USA 215 4.2 09:24:21 23° WSW 09:24:21 23° WSW 09:29:14 10° WNW
CZ-2C R/B 3.7 09:24:45 10° NNE 09:28:24 44° E 09:31:33 13° S
STARLINK-1016 4.2 09:27:00 25° W 09:29:03 48° NW 09:33:05 10° NE
Cosmos 2333 Rocket 2.5 09:25:41 18° S 09:29:53 64° ESE 09:35:30 10° NNE
Cosmos 1408 Rocket 4.1 09:28:38 12° S 09:32:26 54° E 09:36:38 10° NNE
Cosmos 2219 Rocket 2.5 09:28:32 17° S 09:32:51 63° ESE 09:38:22 10° NNE
CZ-2D R/B 3.5 09:29:35 10° NNE 09:33:54 89° WSW 09:36:57 19° SSW
STARLINK-1008 4.4 09:31:48 22° W 09:34:03 44° NW 09:38:02 10° NE
STARLINK-52 3.4 09:30:55 10° NW 09:34:06 61° NE 09:37:15 10° ESE
Cosmos 2322 3.7 09:31:19 22° SSW 09:35:06 80° WNW 09:40:52 10° NNE
ADEOS II 2.9 09:31:43 10° N 09:36:29 36° WNW 09:39:21 21° WSW
STARLINK-1014 4.5 09:36:36 20° W 09:39:03 40° NW 09:42:57 10° NE
IDEFIX/ARIANE 42P 2.7 09:34:25 10° NNE 09:39:42 74° ESE 09:44:41 11° S
STARLINK-1035 4.4 09:38:56 20° SSW 09:41:22 41° SE 09:45:17 10° ENE
Cosmos 1408 4.1 09:41:10 19° W 09:42:02 21° WNW 09:44:52 10° NNW
ATLAS 5 CENTAUR R/B 2.9 09:39:18 11° S 09:42:34 30° ESE 09:46:22 10° NE
Lacrosse 5 rocket 1.6 09:40:12 21° SSW 09:42:41 56° SE 09:46:32 10° NE
ARIANE 5 R/B 2.8 09:38:32 10° N 09:43:22 50° WNW 09:46:43 19° SW
Cosmos 2263 Rocket 3.7 09:40:07 10° WNW 09:43:26 16° W 09:44:02 16° WSW
Cosmos 2333 4.2 09:40:38 20° SSW 09:44:34 70° WNW 09:50:12 10° NNE
Cosmos 2151 3.7 09:43:27 22° SW 09:45:33 36° WNW 09:49:31 10° N
STARLINK-1032 4.3 09:43:41 19° SSW 09:46:18 46° SE 09:50:17 10° ENE
Cosmos 1151 Rocket 3.2 09:42:41 10° N 09:47:04 77° E 09:51:27 10° S
Cosmos 2344 4.0 09:40:23 11° SSW 09:47:36 59° ESE 09:55:04 10° NE
H-2A R/B 2.1 09:44:46 10° SSE 09:49:10 90° WSW 09:53:41 10° NNW
STARLINK-1037 4.1 09:46:35 19° SSW 09:49:17 50° SE 09:53:18 10° ENE
Cosmos 1766 Rocket 3.8 09:47:44 19° SSW 09:50:34 49° W 09:54:46 10° N
Cosmos 1825 3.4 09:49:31 20° WSW 09:51:00 25° WNW 09:54:10 10° NNW
Cosmos 1727 Rocket 4.1 09:44:58 10° N 09:51:11 83° E 09:57:21 10° S
STARLINK-1011 4.1 09:48:29 18° SSW 09:51:17 52° SE 09:55:18 10° ENE
Cosmos 1680 Rocket 4.3 09:49:21 10° S 09:54:24 51° ESE 09:59:31 10° NNE
Okean 3 Rocket 4.3 09:51:43 19° SW 09:54:34 38° WNW 09:58:50 10° N
STARLINK-1036 3.9 09:53:16 17° SSW 09:56:14 58° SE 10:00:18 10° NE
Cosmos 1844 3.7 09:53:24 10° NNW 09:59:14 85° WSW 10:05:00 10° SSE
COBE Rocket 4.5 09:55:09 11° SSW 09:59:45 41° W 10:04:36 10° NNW
Cosmos 1515 Rocket 4.2 09:55:52 10° N 10:00:11 59° E 10:04:26 10° SSE
CZ-4C R/B 3.0 09:56:48 10° S 10:00:24 74° WSW 10:04:02 10° NNW
Cosmos 923 Rocket 4.1 09:55:40 10° SSW 10:00:51 80° ESE 10:06:03 10° NNE
Shenzhou-11 Module 3.4 09:58:46 10° NW 10:00:58 29° NNE 10:03:10 10° ENE
STARLINK-1044 3.8 09:58:03 16° SSW 10:01:12 65° SE 10:05:18 10° NE
STARLINK-60 4.3 09:59:15 10° W 10:01:38 19° SW 10:04:00 10° S
Cosmos 2322 Rocket 4.2 09:59:58 10° W 10:02:43 14° NW 10:05:28 10° NNW
Cosmos 1346 Rocket 4.0 10:00:31 10° SSE 10:04:16 41° E 10:08:02 10° NNE
Meteor 2-3 Rocket 3.7 09:59:31 10° SSW 10:05:07 80° W 10:10:44 10° N
STARLINK-1047 3.7 10:02:50 15° SW 10:06:10 73° SE 10:10:18 10° NE
FALCON 9 DEB 3.2 10:04:25 10° NW 10:07:53 82° NE 10:11:20 10° SE
Cosmos 1340 2.6 10:08:54 10° S 10:12:39 89° WNW 10:16:26 10° N
SL-08 R/B 4.4 10:09:52 12° SW 10:13:10 23° W 10:16:50 10° NW
STARLINK-1059 3.6 10:12:23 13° SW 10:16:07 89° SE 10:20:16 10° NE
STARLINK-1057 3.6 10:17:11 11° SW 10:21:06 83° NW 10:25:15 10° NE
Iridium 4 Rocket 3.8 10:16:19 10° S 10:21:14 72° E 10:26:41 10° N
Cosmos 1743 Rocket 3.5 10:18:43 10° S 10:23:05 77° W 10:27:29 10° N
Cosmos 1818 3.7 10:20:09 10° SW 10:25:31 65° WNW 10:30:57 10° NNE
STARLINK-1034 3.7 10:21:58 10° SW 10:26:05 75° NW 10:30:13 10° NE
PAYLOAD A 4.0 10:22:43 10° NNE 10:27:30 84° E 10:32:25 10° SSW
CZ-3A R/B 4.3 10:24:18 10° SSW 10:29:48 26° SE 10:45:11 10° E
Cosmos 2237 Rocket 2.6 10:24:27 10° S 10:30:03 65° ESE 10:35:41 10° NNE
STARLINK-1068 3.8 10:26:56 10° SW 10:31:03 68° NW 10:35:11 10° NE
Cosmos 1933 4.2 10:29:09 10° NNW 10:32:44 31° W 10:36:17 10° SSW
NOSS 3-3 (A) 4.0 10:27:18 10° SSW 10:33:00 82° ESE 10:39:21 10° NE
NOSS 3-3 (C) 4.0 10:27:24 10° SSW 10:33:05 81° ESE 10:39:27 10° NE
STARLINK-29 4.3 10:32:17 10° WNW 10:34:43 20° SW 10:37:08 10° S
STARLINK-1027 3.9 10:31:58 10° WSW 10:36:03 61° NW 10:40:09 10° NE
